Retour au catalogue

CZ-6A DEB

ActifPO
NORAD 61424·DEBRIS·🇨🇳 China

Lancé Aug 6, 2024 depuis Taiyuan Satellite Launch Center

Loading…

Prochains Passages (prochaines 24 heures)

TLE

FraisSource: Space-Track

Époque: Sep 14, 2026, 10:36 UTC

1 61424U 24140YR  26257.44212357  .00000808  00000-0  21233-3 0  9998
2 61424  89.0010 261.3073 0071126 344.2865  15.6131 14.46772770108807

Suivez CZ-6A DEB en temps réel avec AllMySat

Download on the App Store